GW4340 Weather Reports


time (UTC)temp
C
wind
direction
speed
KPH
gust
KPH
rain 1hr
cm
rain 24hr
cm
rain mn
cm
humidity
%
barometer
mb
20260504015637 0 0.0 0.0 0.00 0.00 0.00 10 1022.4
20260504014722 1 0.0 0.0 0.00 0.00 0.00 10 1022.3
20260504013838 1 0.0 0.0 0.00 0.00 0.00 10 1022.3
20260504012922 1 0.0 0.0 0.00 0.00 0.00 10 1022.4
20260504012022 0 0.0 0.0 0.00 0.00 0.00 10 1022.6
20260504011122 1 0.0 0.0 0.00 0.00 0.00 10 1022.7
20260504010222 1 0.0 0.0 0.00 0.00 0.00 10 1022.7
20260504005322 1 0.0 0.0 0.00 0.00 0.00 10 1022.8
20260504004422 1 0.0 0.0 0.00 0.00 0.00 10 1022.7
20260504003522 1 0.0 0.0 0.00 0.00 0.00 10 1022.9
20260504002622 0 0.0 0.0 0.00 0.00 0.00 10 1022.9
20260504001722 1 0.0 0.0 0.00 0.00 0.00 10 1022.9
20260504000822 1 0.0 0.0 0.00 0.00 0.00 10 1023.0
20260503235922 1 0.0 0.0 0.00 0.00 0.00 10 1023.0
20260503235022 1 0.0 0.0 0.00 0.00 0.00 10 1022.9
20260503234122 1 0.0 0.0 0.00 0.00 0.00 10 1022.8
20260503233222 1 0.0 0.0 0.00 0.00 0.00 10 1022.8
20260503232322 1 0.0 0.0 0.00 0.00 0.00 10 1022.9
20260503231422 1 0.0 0.0 0.00 0.00 0.00 10 1022.8
20260503230522 1 0.0 0.0 0.00 0.00 0.00 10 1023.0
20260503225637 1 0.0 0.0 0.00 0.00 0.00 10 1023.0
20260503224722 1 0.0 0.0 0.00 0.00 0.00 10 1022.9
20260503223822 1 0.0 0.0 0.00 0.00 0.00 10 1022.9
20260503222922 1 0.0 0.0 0.00 0.00 0.00 10 1022.8
20260503222022 1 0.0 0.0 0.00 0.00 0.00 10 1022.9
20260503221122 1 0.0 0.0 0.00 0.00 0.00 10 1022.9
20260503220222 1 0.0 0.0 0.00 0.00 0.00 10 1022.8
20260503215322 1 0.0 0.0 0.00 0.00 0.00 10 1022.9
20260503214422 1 0.0 0.0 0.00 0.00 0.00 10 1022.9
20260503213522 1 0.0 0.0 0.00 0.00 0.00 10 1022.8
20260503212622 2 0.0 0.0 0.00 0.00 0.00 10 1022.8
20260503211722 1 0.0 0.0 0.00 0.00 0.00 10 1022.9
20260503210822 1 0.0 0.0 0.00 0.00 0.00 10 1023.0
20260503205922 1 0.0 0.0 0.00 0.00 0.00 10 1023.1
20260503205022 1 0.0 0.0 0.00 0.00 0.00 10 1023.0
20260503204122 1 0.0 0.0 0.00 0.00 0.00 10 1023.0
20260503203222 1 0.0 0.0 0.00 0.00 0.00 10 1023.0
20260503202322 1 0.0 0.0 0.00 0.00 0.00 10 1023.2
20260503201437 1 0.0 0.0 0.00 0.00 0.00 10 1023.1
20260503200522 2 0.0 0.0 0.00 0.00 0.00 10 1023.1
20260503195622 1 0.0 0.0 0.00 0.00 0.00 10 1023.2
20260503194722 2 0.0 0.0 0.00 0.00 0.00 10 1023.2
20260503193822 2 0.0 0.0 0.00 0.00 0.00 10 1023.1
20260503192922 2 0.0 0.0 0.00 0.00 0.00 10 1023.0
20260503192022 2 0.0 0.0 0.00 0.00 0.00 10 1023.0
20260503191122 2 0.0 0.0 0.00 0.00 0.00 10 1022.9
20260503190222 2 0.0 0.0 0.00 0.00 0.00 10 1023.0
20260503185322 2 0.0 0.0 0.00 0.00 0.00 10 1023.0
20260503184422 2 0.0 0.0 0.00 0.00 0.00 10 1022.9
20260503183522 2 0.0 0.0 0.00 0.00 0.00 10 1022.9
20260503182638 3 0.0 0.0 0.00 0.00 0.00 10 1022.6
20260503181722 3 0.0 0.0 0.00 0.00 0.00 10 1022.5
20260503180822 3 0.0 0.0 0.00 0.00 0.00 10 1022.6
20260503175937 3 0.0 0.0 0.00 0.00 0.00 10 1022.4
20260503175022 3 0.0 0.0 0.00 0.00 0.00 10 1022.4
20260503174122 4 0.0 0.0 0.00 0.00 0.00 10 1022.2
20260503173237 4 0.0 0.0 0.00 0.00 0.00 10 1022.1
20260503172337 5 0.0 0.0 0.00 0.00 0.00 10 1021.8
20260503171422 5 0.0 0.0 0.00 0.00 0.00 10 1021.7
20260503170522 6 0.0 0.0 0.00 0.00 0.00 10 1021.5
20260503150822 9 0.0 0.0 0.00 0.00 0.00 64 1020.7
20260503131122 9 0.0 0.0 0.00 0.00 0.00 64 1021.4
20260503130222 10 0.0 0.0 0.00 0.00 0.00 66 1021.2
20260503110522 10 0.0 0.0 0.00 0.00 0.00 82 1022.0
20260503100222 7 0.0 0.0 0.00 0.00 0.00 85 1023.3
20260503081422 6 0.0 0.0 0.00 0.00 0.00 10 1024.1
20260503080522 5 0.0 0.0 0.00 0.00 0.00 10 1024.4
20260503072922 6 0.0 0.0 0.00 0.00 0.00 10 1024.0
20260503072022 6 0.0 0.0 0.00 0.00 0.00 10 1024.1
20260503071122 5 0.0 0.0 0.00 0.00 0.00 10 1024.2
20260503070221 5 0.0 0.0 0.00 0.00 0.00 10 1024.1
20260503055037 5 0.0 0.0 0.00 0.00 0.00 10 1023.9
20260503054137 5 0.0 0.0 0.00 0.00 0.00 10 1024.0
20260503053222 5 0.0 0.0 0.00 0.00 0.00 10 1024.0
20260503052322 5 0.0 0.0 0.00 0.00 0.00 10 1023.9
20260503051422 5 0.0 0.0 0.00 0.00 0.00 10 1023.9
20260503050522 5 0.0 0.0 0.00 0.00 0.00 10 1023.7
20260503045652 4 0.0 0.0 0.00 0.00 0.00 10 1023.9
20260503044722 3 0.0 0.0 0.00 0.00 0.00 10 1023.9
20260503043837 3 0.0 0.0 0.00 0.00 0.00 10 1024.1
20260503042922 3 0.0 0.0 0.00 0.00 0.00 10 1024.0
20260503042037 2 0.0 0.0 0.00 0.00 0.00 10 1024.0
20260503041122 2 0.0 0.0 0.00 0.00 0.00 10 1024.0
20260503040222 2 0.0 0.0 0.00 0.00 0.00 10 1024.0
20260503035322 2 0.0 0.0 0.00 0.00 0.00 10 1024.0
20260503034422 2 0.0 0.0 0.00 0.00 0.00 10 1023.9
20260503033522 2 0.0 0.0 0.00 0.00 0.00 10 1023.8
20260503032622 1 0.0 0.0 0.00 0.00 0.00 10 1023.8
20260503031722 1 0.0 0.0 0.00 0.00 0.00 10 1023.7
20260503030822 1 0.0 0.0 0.00 0.00 0.00 10 1023.7
20260503025937 1 0.0 0.0 0.00 0.00 0.00 10 1023.6
20260503025022 1 0.0 0.0 0.00 0.00 0.00 10 1023.7
20260503024122 1 0.0 0.0 0.00 0.00 0.00 10 1023.6
20260503023222 1 0.0 0.0 0.00 0.00 0.00 10 1023.6
20260503022322 1 0.0 0.0 0.00 0.00 0.00 10 1023.6
20260503021422 1 0.0 0.0 0.00 0.00 0.00 10 1023.6
20260503020522 1 0.0 0.0 0.00 0.00 0.00 10 1023.6